NOAA 16 DEB, 42355

Orbit data source: Space-Track

NOAA 16 DEB, 42355 is space debris in SSO originally from a launch on Thu, 21 Sep 2000 UTC launched from the Air Force Western Test Range (AFWTR). Debris objects in space refer to the collection of defunct objects orbiting the Earth. Examples of debris include non-operational satellites, rocket bodies, and fragments generated from explosions, collisions, or faulty payload assembly.

Loading next visibility...
Identifier
42355, 2000-055QX
Orbit
SSO
Country
Flag of USUS
Related business
Manufacturer
Unknown
Mission
Spacecraft
Bus & Motor
Unknown
Mass
Unknown
Launch date (UTC)
2000-09-21 (25 years ago)
Launch vehicle
Unknown
Launch site
Air Force Western Test Range (AFWTR)
Object type
Payload
Rocket body
Debris
Shape & HBR
Unknown shape, 0.1 m
Radar Cross Section
Small (<0.1 m²)

Expand to show TLE details & history
Last TLE update: 17 hours ago

TLE from 17 hours ago
0 NOAA 16 DEB
1 42355U 00055QX  25355.03828080  .00001909  00000-0  10048-2 0  9992
2 42355  98.6976  20.1428 0034879  30.4173 329.9015 14.14877553505400
Epoch: 2025-12-21T00:55Z
TLE epoch observation values (Epoch: 2025-12-21T00:55:07.461Z)
Latitude
0.00002°
Longitude
-83.49476°
Altitude
823.865 km
Speed
7.452 km/s
True Right ascension
01h 20m 34s
True Declination
0° 00' 00"
Sunlit
Object was in daylight at epoch
Visualization orbit readout
Latitude
Unknown
Longitude
Unknown
Altitude
Unknown
Speed
Unknown
Apparent Right ascension
Unknown
Apparent Declination
Unknown
Sunlit
N/A
Visualization observer readout
Local Sidereal Time
16:34:04
Azimuth
Unknown
Elevation
Unknown
Doppler factor
Unknown
Orbital elements
Apogee altitude
865.069 km
Perigee altitude
814.718 km
Semi-major axis
7,218.031 km
Eccentricity
0.00349
Inclination
98.6976°
RAAN
20.1428°
Arg. of periapsis
30.4173°
True anomaly
329.7003°
Mean anomaly
329.9015°
Eccentric anomaly
329.80098°
Mean motion
3.53928 °/min
Orbital period
101.72 mins
BSTAR
0.0010048
Loading maneuver chart data...
Computing Atmospheric mass density...
Loading historical data...
Loading historical data...
Loading historical data...
Loading historical data...
Loading historical data...
Loading historical data...
Loading historical data...

Documentation

Showing up to 5 results
|